Wetterdaten: Woche 09.02.09 - 15.02.09 (KW7)
Datum Zeit Temp. Innen Temp. Aussen Feuchte Inne Feuchte Auss Luftdruck Regen ab 0,1 Wind
09.02.2009 00:00 16,3 C 1,2 C 40 % 84 % 1005,5 hPa 0,0 l/m 0,0 km/h (0 Bft)
09.02.2009 01:00 16,3 C 1,9 C 40 % 83 % 1005,5 hPa 0,0 l/m 1,5 km/h (1 Bft)
09.02.2009 02:00 16,2 C 2,4 C 40 % 80 % 1005,5 hPa 0,0 l/m 0,6 km/h (0 Bft)
09.02.2009 03:00 16,2 C 2,5 C 40 % 78 % 1005,5 hPa 0,0 l/m 2,2 km/h (1 Bft)
09.02.2009 04:00 16,2 C 2,1 C 40 % 78 % 1005,2 hPa 0,0 l/m 0,1 km/h (0 Bft)
09.02.2009 05:00 16,2 C 1,5 C 40 % 79 % 1004,5 hPa 0,0 l/m 0,0 km/h (0 Bft)
09.02.2009 06:00 16,2 C 1,3 C 40 % 80 % 1004,4 hPa 0,0 l/m 0,0 km/h (0 Bft)
09.02.2009 07:00 16,0 C 1,5 C 39 % 81 % 1004,0 hPa 0,0 l/m 0,1 km/h (0 Bft)
09.02.2009 08:00 16,0 C 1,5 C 39 % 82 % 1004,5 hPa 0,0 l/m 0,0 km/h (0 Bft)
09.02.2009 09:00 16,1 C 1,9 C 40 % 82 % 1004,5 hPa 0,5 l/m 0,7 km/h (0 Bft)
09.02.2009 10:00 16,1 C 2,5 C 40 % 83 % 1004,7 hPa 0,0 l/m 1,3 km/h (1 Bft)
09.02.2009 11:00 16,2 C 3,2 C 40 % 84 % 1004,6 hPa 0,0 l/m 5,6 km/h (1 Bft)
09.02.2009 12:00 16,2 C 4,0 C 41 % 83 % 1004,4 hPa 0,0 l/m 1,4 km/h (1 Bft)
09.02.2009 13:00 16,4 C 4,6 C 45 % 81 % 1004,3 hPa 0,0 l/m 1,1 km/h (1 Bft)
09.02.2009 14:00 16,3 C 4,9 C 46 % 79 % 1003,7 hPa 0,0 l/m 0,8 km/h (0 Bft)
09.02.2009 15:00 16,1 C 5,3 C 45 % 77 % 1003,1 hPa 0,0 l/m 2,4 km/h (1 Bft)
09.02.2009 16:00 16,1 C 5,2 C 45 % 76 % 1002,0 hPa 0,0 l/m 0,3 km/h (0 Bft)
09.02.2009 17:00 16,0 C 4,9 C 45 % 77 % 1000,8 hPa 0,0 l/m 1,1 km/h (0 Bft)
09.02.2009 18:00 16,1 C 4,5 C 45 % 76 % 1000,3 hPa 0,0 l/m 3,0 km/h (1 Bft)
09.02.2009 19:00 16,2 C 3,8 C 44 % 81 % 999,1 hPa 0,5 l/m 2,0 km/h (1 Bft)
09.02.2009 20:00 16,2 C 2,8 C 44 % 84 % 996,6 hPa 1,6 l/m 1,6 km/h (1 Bft)
09.02.2009 21:00 16,4 C 2,2 C 43 % 86 % 994,4 hPa 1,0 l/m 1,7 km/h (1 Bft)
09.02.2009 22:00 16,4 C 1,4 C 42 % 87 % 992,6 hPa 4,1 l/m 3,4 km/h (1 Bft)
09.02.2009 23:00 16,6 C 1,7 C 42 % 88 % 990,7 hPa 3,1 l/m 2,4 km/h (1 Bft)
10.02.2009 00:00 16,4 C 2,1 C 42 % 89 % 988,8 hPa 2,6 l/m 2,9 km/h (1 Bft)
10.02.2009 01:00 16,3 C 2,9 C 43 % 89 % 987,4 hPa 0,0 l/m 2,6 km/h (1 Bft)
10.02.2009 02:00 16,3 C 3,4 C 43 % 89 % 986,0 hPa 0,0 l/m 1,2 km/h (1 Bft)
10.02.2009 03:00 16,2 C 4,0 C 43 % 90 % 984,7 hPa 0,0 l/m 1,7 km/h (1 Bft)
10.02.2009 04:00 16,2 C 4,8 C 44 % 90 % 982,6 hPa 0,0 l/m 0,0 km/h (0 Bft)
10.02.2009 05:00 16,1 C 5,0 C 44 % 90 % 981,3 hPa 0,0 l/m 0,4 km/h (0 Bft)
10.02.2009 06:00 16,2 C 5,6 C 45 % 90 % 979,9 hPa 1,6 l/m 0,3 km/h (0 Bft)
10.02.2009 07:00 16,4 C 6,0 C 45 % 90 % 979,3 hPa 0,5 l/m 0,0 km/h (0 Bft)
10.02.2009 08:00 16,4 C 6,1 C 45 % 90 % 978,8 hPa 0,0 l/m 0,1 km/h (0 Bft)
10.02.2009 09:00 16,4 C 6,4 C 46 % 90 % 979,3 hPa 0,0 l/m 0,5 km/h (0 Bft)
10.02.2009 10:00 16,3 C 6,5 C 46 % 90 % 979,6 hPa 0,5 l/m 0,0 km/h (0 Bft)
10.02.2009 11:00 16,3 C 7,0 C 47 % 90 % 981,1 hPa 0,5 l/m 3,1 km/h (1 Bft)
10.02.2009 12:00 16,2 C 6,6 C 47 % 90 % 982,3 hPa 1,0 l/m 6,3 km/h (2 Bft)
10.02.2009 13:00 16,2 C 6,1 C 47 % 89 % 983,4 hPa 0,5 l/m 5,1 km/h (1 Bft)
10.02.2009 14:00 16,2 C 5,1 C 47 % 88 % 985,6 hPa 1,6 l/m 10,6 km/h (2 Bft)
10.02.2009 15:00 16,1 C 1,8 C 45 % 87 % 990,1 hPa 1,0 l/m 10,9 km/h (2 Bft)
10.02.2009 16:00 16,2 C 0,9 C 44 % 89 % 993,9 hPa 0,5 l/m 14,2 km/h (3 Bft)
10.02.2009 17:00 16,2 C 1,3 C 44 % 90 % 997,0 hPa 1,6 l/m 13,4 km/h (3 Bft)
10.02.2009 18:00 16,0 C 2,1 C 45 % 90 % 999,3 hPa 1,0 l/m 4,9 km/h (1 Bft)
10.02.2009 19:00 16,6 C 2,6 C 44 % 90 % 1000,8 hPa 0,5 l/m 5,7 km/h (1 Bft)
10.02.2009 20:00 16,4 C 3,0 C 44 % 87 % 1002,3 hPa 0,0 l/m 4,8 km/h (1 Bft)
10.02.2009 21:00 16,3 C 2,9 C 43 % 86 % 1003,4 hPa 0,0 l/m 6,6 km/h (2 Bft)
10.02.2009 22:00 16,2 C 2,6 C 43 % 86 % 1004,7 hPa 0,0 l/m 3,6 km/h (1 Bft)
10.02.2009 23:00 16,2 C 2,4 C 43 % 86 % 1006,1 hPa 0,0 l/m 3,0 km/h (1 Bft)
11.02.2009 00:00 16,2 C 2,5 C 43 % 86 % 1007,4 hPa 0,0 l/m 5,5 km/h (1 Bft)
11.02.2009 01:00 16,1 C 2,3 C 43 % 86 % 1008,5 hPa 0,0 l/m 5,4 km/h (1 Bft)
11.02.2009 02:00 16,1 C 2,3 C 43 % 86 % 1009,3 hPa 0,0 l/m 3,4 km/h (1 Bft)
11.02.2009 03:00 16,1 C 2,3 C 43 % 85 % 1010,1 hPa 0,0 l/m 2,6 km/h (1 Bft)
11.02.2009 04:00 16,1 C 1,9 C 42 % 84 % 1010,8 hPa 0,0 l/m 2,0 km/h (1 Bft)
11.02.2009 05:00 16,0 C 1,3 C 42 % 84 % 1011,5 hPa 0,0 l/m 0,7 km/h (0 Bft)
11.02.2009 06:00 16,0 C 0,7 C 42 % 85 % 1012,3 hPa 0,0 l/m 1,1 km/h (0 Bft)
11.02.2009 07:00 16,0 C 0,3 C 42 % 86 % 1012,5 hPa 0,0 l/m 0,4 km/h (0 Bft)
11.02.2009 08:00 16,0 C 0,2 C 42 % 86 % 1012,9 hPa 0,0 l/m 0,1 km/h (0 Bft)
11.02.2009 09:00 15,9 C 0,8 C 41 % 87 % 1013,5 hPa 0,0 l/m 0,8 km/h (0 Bft)
11.02.2009 10:00 15,9 C 1,6 C 42 % 86 % 1013,5 hPa 0,0 l/m 0,3 km/h (0 Bft)
11.02.2009 11:00 16,0 C 2,8 C 42 % 86 % 1013,5 hPa 0,0 l/m 2,5 km/h (1 Bft)
11.02.2009 12:00 16,0 C 4,6 C 42 % 81 % 1013,5 hPa 0,0 l/m 6,0 km/h (2 Bft)
11.02.2009 13:00 15,9 C 5,3 C 42 % 75 % 1013,3 hPa 0,0 l/m 5,9 km/h (2 Bft)
11.02.2009 14:00 15,8 C 4,9 C 42 % 74 % 1012,8 hPa 0,0 l/m 4,5 km/h (1 Bft)
11.02.2009 15:00 15,8 C 4,9 C 41 % 73 % 1012,5 hPa 0,0 l/m 2,8 km/h (1 Bft)
11.02.2009 16:00 15,7 C 4,6 C 42 % 75 % 1012,5 hPa 0,0 l/m 3,8 km/h (1 Bft)
11.02.2009 17:00 15,7 C 4,2 C 42 % 78 % 1012,5 hPa 0,0 l/m 2,1 km/h (1 Bft)
11.02.2009 18:00 15,9 C 3,6 C 42 % 82 % 1012,5 hPa 0,5 l/m 1,8 km/h (1 Bft)
11.02.2009 19:00 16,4 C 3,0 C 42 % 85 % 1012,5 hPa 1,6 l/m 2,3 km/h (1 Bft)
11.02.2009 20:00 16,6 C 2,1 C 42 % 86 % 1012,5 hPa 0,5 l/m 0,0 km/h (0 Bft)
11.02.2009 21:00 16,3 C 1,6 C 42 % 87 % 1012,5 hPa 0,0 l/m 1,2 km/h (1 Bft)
11.02.2009 22:00 16,2 C 1,7 C 42 % 88 % 1013,2 hPa 0,0 l/m 0,6 km/h (0 Bft)
11.02.2009 23:00 16,1 C 1,6 C 42 % 86 % 1013,9 hPa 0,0 l/m 0,3 km/h (0 Bft)
12.02.2009 00:00 16,0 C 1,2 C 41 % 85 % 1014,8 hPa 0,0 l/m 0,1 km/h (0 Bft)
12.02.2009 01:00 16,0 C 0,9 C 41 % 85 % 1015,5 hPa 0,0 l/m 0,0 km/h (0 Bft)
12.02.2009 02:00 15,9 C 0,4 C 40 % 85 % 1016,5 hPa 0,0 l/m 0,0 km/h (0 Bft)
12.02.2009 03:00 15,9 C 0,3 C 40 % 85 % 1016,6 hPa 0,0 l/m 0,0 km/h (0 Bft)
12.02.2009 04:00 15,8 C 0,4 C 40 % 86 % 1016,6 hPa 0,0 l/m 0,0 km/h (0 Bft)
12.02.2009 05:00 15,8 C 0,4 C 40 % 87 % 1016,6 hPa 0,0 l/m 0,3 km/h (0 Bft)
12.02.2009 06:00 15,8 C 0,4 C 40 % 87 % 1016,6 hPa 0,0 l/m 0,0 km/h (0 Bft)
12.02.2009 07:00 15,8 C 0,3 C 41 % 87 % 1017,4 hPa 0,0 l/m 0,1 km/h (0 Bft)
12.02.2009 08:00 15,8 C -0,0 C 40 % 87 % 1017,9 hPa 0,0 l/m 0,0 km/h (0 Bft)
12.02.2009 09:00 15,8 C 0,2 C 40 % 87 % 1018,6 hPa 0,0 l/m 0,3 km/h (0 Bft)
12.02.2009 10:00 15,8 C 1,0 C 40 % 87 % 1018,6 hPa 0,0 l/m 0,3 km/h (0 Bft)
12.02.2009 11:00 15,8 C 2,0 C 41 % 85 % 1019,0 hPa 0,0 l/m 1,3 km/h (1 Bft)
12.02.2009 12:00 15,8 C 3,2 C 41 % 81 % 1019,5 hPa 0,0 l/m 2,7 km/h (1 Bft)
12.02.2009 13:00 15,8 C 4,6 C 40 % 75 % 1019,5 hPa 0,0 l/m 1,0 km/h (0 Bft)
12.02.2009 14:00 15,8 C 4,6 C 40 % 72 % 1019,5 hPa 0,0 l/m 0,9 km/h (0 Bft)
12.02.2009 15:00 15,8 C 4,1 C 40 % 73 % 1019,5 hPa 0,0 l/m 2,1 km/h (1 Bft)
12.02.2009 16:00 15,7 C 2,5 C 40 % 78 % 1019,6 hPa 0,0 l/m 0,6 km/h (0 Bft)
12.02.2009 17:00 15,8 C 1,8 C 40 % 80 % 1020,4 hPa 0,0 l/m 0,0 km/h (0 Bft)
12.02.2009 18:00 15,9 C 1,0 C 42 % 81 % 1020,6 hPa 0,0 l/m 0,0 km/h (0 Bft)
12.02.2009 19:00 15,9 C 0,9 C 43 % 82 % 1020,6 hPa 0,0 l/m 0,0 km/h (0 Bft)
12.02.2009 20:00 15,9 C 0,5 C 42 % 82 % 1020,6 hPa 0,0 l/m 0,0 km/h (0 Bft)
12.02.2009 21:00 15,9 C 0,6 C 42 % 84 % 1020,6 hPa 0,0 l/m 0,0 km/h (0 Bft)
12.02.2009 22:00 16,0 C 0,8 C 41 % 84 % 1020,6 hPa 0,0 l/m 0,0 km/h (0 Bft)
12.02.2009 23:00 15,9 C 0,8 C 41 % 84 % 1020,6 hPa 0,0 l/m 0,0 km/h (0 Bft)
13.02.2009 00:00 15,8 C 0,3 C 41 % 84 % 1020,6 hPa 0,0 l/m 0,0 km/h (0 Bft)
13.02.2009 01:00 15,8 C 0,1 C 41 % 85 % 1020,6 hPa 0,0 l/m 0,0 km/h (0 Bft)
13.02.2009 02:00 15,8 C 0,2 C 41 % 86 % 1020,4 hPa 0,0 l/m 0,0 km/h (0 Bft)
13.02.2009 03:00 15,7 C 0,3 C 41 % 86 % 1019,6 hPa 0,0 l/m 0,0 km/h (0 Bft)
13.02.2009 04:00 15,7 C 0,4 C 41 % 87 % 1019,6 hPa 0,0 l/m 0,0 km/h (0 Bft)
13.02.2009 05:00 15,7 C 0,5 C 41 % 87 % 1019,6 hPa 0,0 l/m 0,0 km/h (0 Bft)
13.02.2009 06:00 15,7 C 0,6 C 41 % 87 % 1019,6 hPa 0,0 l/m 0,0 km/h (0 Bft)
13.02.2009 07:00 15,7 C 0,7 C 41 % 88 % 1019,6 hPa 0,0 l/m 0,0 km/h (0 Bft)
13.02.2009 08:00 15,7 C 0,6 C 41 % 88 % 1019,6 hPa 0,0 l/m 0,0 km/h (0 Bft)
13.02.2009 09:00 15,7 C 0,8 C 41 % 88 % 1019,6 hPa 0,0 l/m 0,0 km/h (0 Bft)
13.02.2009 10:00 15,7 C 1,2 C 41 % 88 % 1019,6 hPa 0,5 l/m 0,4 km/h (0 Bft)
13.02.2009 11:00 15,8 C 1,7 C 41 % 89 % 1019,6 hPa 0,0 l/m 0,5 km/h (0 Bft)
13.02.2009 12:00 15,8 C 2,4 C 41 % 88 % 1019,5 hPa 0,0 l/m 0,6 km/h (0 Bft)
13.02.2009 13:00 15,7 C 3,4 C 42 % 85 % 1019,0 hPa 0,0 l/m 1,6 km/h (1 Bft)
13.02.2009 14:00 15,6 C 3,6 C 41 % 79 % 1018,5 hPa 0,0 l/m 2,8 km/h (1 Bft)
13.02.2009 15:00 15,6 C 3,4 C 41 % 79 % 1018,5 hPa 0,0 l/m 2,4 km/h (1 Bft)
13.02.2009 16:00 15,5 C 2,7 C 41 % 82 % 1018,5 hPa 0,0 l/m 1,1 km/h (1 Bft)
13.02.2009 17:00 15,7 C 2,4 C 41 % 84 % 1018,5 hPa 0,5 l/m 0,1 km/h (0 Bft)
13.02.2009 18:00 15,8 C 2,0 C 42 % 86 % 1018,5 hPa 0,0 l/m 0,6 km/h (0 Bft)
13.02.2009 19:00 15,8 C 1,6 C 42 % 87 % 1018,7 hPa 0,0 l/m 0,6 km/h (0 Bft)
13.02.2009 20:00 15,8 C 1,2 C 42 % 87 % 1018,8 hPa 0,0 l/m 0,0 km/h (0 Bft)
13.02.2009 21:00 15,8 C 0,9 C 41 % 88 % 1019,6 hPa 0,0 l/m 0,5 km/h (0 Bft)
13.02.2009 22:00 15,8 C 0,9 C 41 % 87 % 1019,6 hPa 0,0 l/m 0,7 km/h (0 Bft)
13.02.2009 23:00 15,8 C 0,9 C 41 % 87 % 1019,6 hPa 0,0 l/m 0,2 km/h (0 Bft)
14.02.2009 00:00 15,7 C 0,9 C 41 % 86 % 1020,1 hPa 0,0 l/m 0,5 km/h (0 Bft)
14.02.2009 01:00 15,7 C 0,9 C 41 % 86 % 1020,6 hPa 0,0 l/m 0,1 km/h (0 Bft)
14.02.2009 02:00 15,7 C 0,9 C 40 % 85 % 1020,6 hPa 0,0 l/m 0,5 km/h (0 Bft)
14.02.2009 03:00 15,6 C 0,8 C 40 % 84 % 1021,0 hPa 0,0 l/m 0,1 km/h (0 Bft)
14.02.2009 04:00 15,6 C 0,7 C 40 % 85 % 1021,8 hPa 0,0 l/m 0,1 km/h (0 Bft)
14.02.2009 05:00 15,6 C 0,4 C 39 % 84 % 1022,6 hPa 0,0 l/m 0,0 km/h (0 Bft)
14.02.2009 06:00 15,6 C -0,1 C 39 % 83 % 1023,4 hPa 0,0 l/m 0,0 km/h (0 Bft)
14.02.2009 07:00 15,5 C -0,9 C 38 % 83 % 1024,5 hPa 0,0 l/m 0,1 km/h (0 Bft)
14.02.2009 08:00 15,5 C -1,4 C 38 % 84 % 1025,2 hPa 0,0 l/m 0,0 km/h (0 Bft)
14.02.2009 09:00 15,4 C -1,3 C 38 % 84 % 1025,9 hPa 0,0 l/m 0,0 km/h (0 Bft)
14.02.2009 10:00 15,4 C -0,5 C 38 % 83 % 1026,6 hPa 0,0 l/m 0,0 km/h (0 Bft)
14.02.2009 11:00 15,5 C 0,8 C 37 % 80 % 1026,9 hPa 0,0 l/m 0,3 km/h (0 Bft)
14.02.2009 12:00 16,0 C 1,7 C 37 % 77 % 1027,6 hPa 0,0 l/m 0,0 km/h (0 Bft)
14.02.2009 13:00 16,3 C 2,3 C 37 % 75 % 1027,6 hPa 0,0 l/m 0,2 km/h (0 Bft)
14.02.2009 14:00 16,4 C 3,0 C 37 % 72 % 1027,6 hPa 0,0 l/m 0,8 km/h (0 Bft)
14.02.2009 15:00 16,4 C 3,1 C 37 % 70 % 1027,6 hPa 0,0 l/m 0,1 km/h (0 Bft)
14.02.2009 16:00 16,2 C 2,6 C 37 % 70 % 1028,1 hPa 0,0 l/m 0,0 km/h (0 Bft)
14.02.2009 17:00 16,0 C 2,3 C 38 % 71 % 1028,6 hPa 0,0 l/m 0,0 km/h (0 Bft)
14.02.2009 18:00 16,0 C 1,1 C 38 % 73 % 1028,6 hPa 0,0 l/m 0,0 km/h (0 Bft)
14.02.2009 19:00 16,2 C -0,0 C 39 % 75 % 1028,6 hPa 0,0 l/m 0,0 km/h (0 Bft)
14.02.2009 20:00 16,0 C -0,7 C 40 % 77 % 1029,2 hPa 0,0 l/m 0,0 km/h (0 Bft)
14.02.2009 21:00 16,0 C -1,1 C 40 % 78 % 1029,6 hPa 0,0 l/m 0,0 km/h (0 Bft)
14.02.2009 22:00 15,9 C -1,4 C 40 % 79 % 1029,6 hPa 0,0 l/m 0,0 km/h (0 Bft)
14.02.2009 23:00 15,8 C -1,6 C 40 % 80 % 1029,7 hPa 0,0 l/m 0,0 km/h (0 Bft)
15.02.2009 00:00 15,7 C -1,8 C 40 % 81 % 1029,7 hPa 0,0 l/m 0,0 km/h (0 Bft)
15.02.2009 01:00 15,7 C -2,1 C 39 % 81 % 1029,7 hPa 0,0 l/m 0,0 km/h (0 Bft)
15.02.2009 02:00 15,6 C -2,2 C 39 % 82 % 1029,7 hPa 0,0 l/m 0,0 km/h (0 Bft)
15.02.2009 03:00 15,6 C -2,1 C 39 % 82 % 1029,7 hPa 0,0 l/m 0,0 km/h (0 Bft)
15.02.2009 04:00 15,5 C -2,3 C 39 % 83 % 1029,7 hPa 0,0 l/m 0,0 km/h (0 Bft)
15.02.2009 05:00 15,4 C -2,6 C 39 % 83 % 1029,7 hPa 0,0 l/m 0,0 km/h (0 Bft)
15.02.2009 06:00 15,4 C -2,7 C 38 % 83 % 1029,1 hPa 0,0 l/m 0,0 km/h (0 Bft)
15.02.2009 07:00 15,3 C -2,8 C 38 % 84 % 1028,7 hPa 0,0 l/m 0,0 km/h (0 Bft)
15.02.2009 08:00 15,2 C -2,4 C 38 % 84 % 1028,7 hPa 0,0 l/m 0,0 km/h (0 Bft)
15.02.2009 09:00 15,2 C -1,5 C 38 % 85 % 1028,6 hPa 0,0 l/m 0,1 km/h (0 Bft)
15.02.2009 10:00 15,2 C -0,3 C 38 % 84 % 1028,6 hPa 0,0 l/m 0,1 km/h (0 Bft)
15.02.2009 11:00 15,2 C 0,8 C 38 % 80 % 1028,6 hPa 0,0 l/m 0,6 km/h (0 Bft)
15.02.2009 12:00 15,2 C 1,5 C 38 % 76 % 1027,9 hPa 0,0 l/m 1,9 km/h (1 Bft)
15.02.2009 13:00 15,3 C 2,3 C 38 % 73 % 1027,0 hPa 0,0 l/m 2,6 km/h (1 Bft)
15.02.2009 14:00 15,3 C 2,3 C 38 % 74 % 1026,6 hPa 0,0 l/m 1,7 km/h (1 Bft)
15.02.2009 15:00 15,2 C 1,8 C 38 % 79 % 1025,8 hPa 0,0 l/m 1,2 km/h (1 Bft)
15.02.2009 16:00 15,3 C 1,6 C 40 % 81 % 1025,0 hPa 0,0 l/m 1,0 km/h (0 Bft)
15.02.2009 17:00 15,5 C 1,5 C 41 % 83 % 1024,6 hPa 0,0 l/m 1,8 km/h (1 Bft)
15.02.2009 18:00 15,6 C 1,3 C 41 % 84 % 1024,6 hPa 0,5 l/m 0,5 km/h (0 Bft)
15.02.2009 19:00 15,6 C 0,9 C 41 % 86 % 1024,4 hPa 0,0 l/m 2,0 km/h (1 Bft)
15.02.2009 20:00 15,6 C 0,8 C 41 % 87 % 1023,7 hPa 0,5 l/m 3,9 km/h (1 Bft)
15.02.2009 21:00 15,5 C 0,7 C 41 % 88 % 1023,2 hPa 0,0 l/m 6,3 km/h (2 Bft)
15.02.2009 22:00 15,5 C 0,9 C 41 % 88 % 1022,6 hPa 1,0 l/m 5,8 km/h (2 Bft)
15.02.2009 23:00 15,5 C 1,1 C 41 % 89 % 1022,6 hPa 0,5 l/m 3,6 km/h (1 Bft)
Min-Datum _ 15.02.09 15.02.09 14.02.09 14.02.09 10.02.09 - 09.02.09
_ Min-Zeit 07:42 07:14 10:56 15:26 08:14 - 00:00
Minimum _ 15,2 C -2,8 C 37 % 69 % 978,3 hPa - 0,0 km/h (0 Bft)
Max-Datum _ 09.02.09 10.02.09 09.02.09 10.02.09 14.02.09 09.02.09 10.02.09
_ Max-Zeit 22:54 11:42 13:52 02:56 22:44 22:04 17:32
Maximum _ 16,8 C 7,3 C 47 % 90 % 1029,7 hPa 4,1 l/m 48,4 km/h
N-NW (6 Bft)
Durchschnitt _ 15,9 C 1,8 C 41 % 83 % 1013,5 hPa #30,6 l/m 1,5 km/h (1 Bft)
© 2012 W. Hausmann